Miscellaneous Local Product
Issued by NWS North Platte, NE

Home | Current Version | Previous Version | Text Only | Print | Product List | Glossary On
Versions: 1 2 3 4 5 6 7 8 9 10 11 12 13 14 15 16 17 18 19 20 21 22 23 24 25 26 27 28 29 30 31 32 33 34 35 36 37 38 39 40 41 42 43 44 45 46 47 48 49 50
000
AXUS43 KLBF 160410
MISLBF


WESTERN AND NORTH CENTRAL NEBRASKA HOURLY WEATHER ROUNDUP
NATIONAL WEATHER SERVICE NORTH PLATTE NE
1100 PM CDT TUE APR 15 2014

***STATIONS NOT REPORTING VARIABLES SUCH AS SKY/WEATHER OR
PRESSURE ARE PROVIDED BY THE NEBRASKA DEPARTMENT OF
ROADS...RAWS...AND APRS NETWORKS...AND ARE NOT UNDER
NATIONAL WEATHER SERVICE QUALITY CONTROL***

...OBSERVATIONS IN AND NEAR THE EASTERN PANHANDLE OF NEBRASKA...

CITY           SKY/WX    TMP DP  RH WIND       PRES   REMARKS
PINE RIDGE     CLOUDY    53  28  38 S10       29.55S
CHADRON        CLOUDY    57  31  37 W10       29.56S
ALLIANCE       CLOUDY    53  28  38 SW12      29.60S
SIDNEY         CLOUDY    48  32  53 SW9       29.65F
WHITECLAY        N/A     44  27  50 CALM        N/A
CRESCENT LAKE    N/A     54  23  30 S8G16       N/A
LISCO            N/A     57  20  24 S3          N/A
BIG SPRINGS      N/A     53  34  48 SW7         N/A
LEWELLEN         N/A     59  22  24 SW12        N/A
$$

...OBSERVATIONS IN SOUTHWEST NEBRASKA AND FAR NORTHEAST COLORADO...

CITY           SKY/WX    TMP DP  RH WIND       PRES   REMARKS
WRAY           FAIR      49  25  38 S8        29.68F
HOLYOKE        FAIR      43  32  65 S10       29.67F
IMPERIAL       PTCLDY    50  25  37 S13       29.67F
OGALLALA       MOCLDY    52  27  37 SW12G20   29.64F
NORTH PLATTE   PTCLDY    51  25  36 S14       29.64F
MCCOOK         CLEAR     50  28  42 S13       29.69F
LEXINGTON      PTCLDY    52  29  41 S18G25    29.68F
PAXTON           N/A     48  29  48 S8          N/A
SUTHERLAND       N/A     45  19  34 S15         N/A
MEDICINE CREEK   N/A     51  31  45 SW5         N/A
GOTHENBURG       N/A     54  29  38 S7G22       N/A
CALLAWAY         N/A     43  29  57 S7          N/A
$$

...OBSERVATIONS IN NORTH CENTRAL NEBRASKA...

CITY           SKY/WX    TMP DP  RH WIND       PRES   REMARKS
VALENTINE      CLOUDY    53  27  36 S3        29.56F
THEDFORD       CLOUDY    55  23  28 S7        29.61F
AINSWORTH      CLOUDY    53  30  41 S12       29.58F
O`NEILL        MOCLDY    51  28  40 SE13      29.64F
ORD            MOCLDY    52  29  41 S15       29.66F
BROKEN BOW     MOCLDY    50  29  44 S13       29.66F
BROWNLEE         N/A     55  24  30 S8          N/A
SPRINGVIEW       N/A     53  31  42 E3          N/A
DUNNING          N/A     53  23  30 S10         N/A
BREWSTER         N/A     53  28  38 S15         N/A
ROSE             N/A     55  35  47 E10         N/A
NEWPORT          N/A     52  31  43 S8          N/A
COMSTOCK         N/A     51  32  48 S14         N/A
CHAMBERS         N/A     48  28  46 S12         N/A
EWING            N/A     47  31  53 SE3         N/A
$$

...SOME WEATHER OBSERVATIONS FROM AROUND THE REGION...

CITY           SKY/WX    TMP DP  RH WIND       PRES   REMARKS
DENVER         MOCLDY    58   9  14 W18G30    29.70F
LARAMIE        MOCLDY    41  24  51 W24G32    29.74S
CHEYENNE       CLOUDY    48  20  32 W16       29.70F
SCOTTSBLUFF    CLOUDY    60  23  24 W20G28    29.61S
RAPID CITY     CLOUDY    52  33  48 N25G33    29.56R
PIERRE         CLOUDY    50  30  46 SE17      29.53S
WINNER         FAIR      56  29  35 S16G22    29.54F
SIOUX FALLS    CLOUDY    40  25  55 SE17G23   29.78F WCI  31
OMAHA          PTCLDY    46  30  53 SE21      29.86F
GRAND ISLAND   PTCLDY    51  27  39 S18       29.73F
KANSAS CITY    PTCLDY    48  27  44 S17       30.02S
WICHITA        PTCLDY    53  16  23 S16       29.94F
HAYS           PTCLDY    48  21  34 S13       29.80F
LIBERAL        PTCLDY    54  16  22 S21       29.81F
GOODLAND       CLEAR     43  26  51 S13       29.72F
$$



USA.gov is the U.S. government's official web portal to all federal, state and local government web resources and services.